{"data":{"norad_id":66972,"intl_designator":"2025-288P","name":"STARLINK-34846","alt_names":[],"object_type":"PAYLOAD","status":"ACTIVE","operator":null,"country":"US","launch_date":"2025-12-08","launch_site_code":"AFETR","launch_vehicle":null,"mission":null,"orbit_class":"UNKNOWN","rcs_meters":null,"size_class":null,"mass_kg":null,"dimensions":null,"purposes":["comms"],"wikipedia_slug":null,"has_3d_model":false,"image_url":null,"decayed_at":null,"tle_current":{"epoch":"2026-05-25T03:43:06.453984Z","epoch_age_seconds":57614,"freshness":"FRESH","line1":"1 66972U 25288P   26145.15493581  .00013864  00000+0  51222-3 0  9995","line2":"2 66972  42.9993 311.4587 0000404 297.9034  62.1777 15.27589081 26980","mean_motion":15.27589081,"eccentricity":4.04e-5,"inclination_deg":42.9993,"raan_deg":311.4587,"arg_perigee_deg":297.9034,"mean_anomaly_deg":62.1777,"bstar":0.00051222,"rev_number":2698,"period_min":94.26618832974,"perigee_km":482.74471357375,"apogee_km":483.29909521322,"semimajor_km":6861.1589043935,"source":"CELESTRAK","updated_at":"2026-05-25T13:38:21.423168Z"}}}